Helicity
79 70 47 41 28 25 15 10 5 17 38 33 81 96 64 78 78 55 30 60 100 91 63 36 37 74 74 39 29 43 71 76 67 57 46 40 42 37 32 25 22 27 36 37 33 30 27 26 26
65 53 37 10 31 43 63 2 10 8 22 52 98 123 116 63 79 91 124 101 111 104 69 38 15 80 95 86 60 36 45 61 59 55 52 60 63 62 59 55 53 53 54 53 49 48 45 41 37
62 48 24 4 7 1 23 -1 -4 12 13 61 69 80 62 71 77 72 114 144 146 139 74 46 18 57 90 119 105 83 67 53 44 44 52 60 74 80 75 66 59 65 74 70 65 64 61 59 58
41 33 26 8 42 44 17 -14 -0 18 43 45 50 56 91 66 67 65 133 198 165 154 102 97 55 32 82 91 97 94 84 71 60 52 54 62 73 81 85 83 78 77 78 81 82 75 67 63 57
22 6 5 23 79 56 68 68 27 27 17 36 49 33 52 100 96 98 144 161 188 143 134 110 93 75 68 106 96 87 86 78 77 83 80 76 76 80 88 87 93 95 90 83 83 78 73 64 57
-11 -13 11 43 88 87 104 108 34 40 41 40 47 37 13 87 104 125 130 114 171 149 119 111 125 121 112 79 100 104 80 82 72 69 76 75 70 73 74 91 88 84 84 87 90 88 82 73 62
18 12 21 40 66 66 96 115 87 65 26 73 25 34 44 41 84 122 131 128 139 164 130 111 115 115 146 136 106 90 98 94 90 91 76 59 57 70 75 68 61 73 75 75 80 82 81 75 65
55 49 62 76 81 93 98 115 70 94 85 27 14 21 23 78 47 110 141 147 132 149 165 152 113 110 94 123 135 130 106 88 95 103 106 89 75 63 64 72 90 84 71 66 70 76 72 66 63
35 55 99 134 117 125 75 90 104 75 59 75 46 12 79 55 55 93 127 136 157 129 148 160 176 127 108 91 120 141 141 139 111 90 85 95 75 68 57 63 74 74 75 77 76 70 63 62 57
22 42 95 115 91 75 44 59 63 87 72 71 105 41 10 7 32 58 96 121 143 163 151 157 145 154 127 102 99 122 126 122 121 115 103 96 86 75 77 73 81 84 74 71 68 67 68 67 46
41 53 63 49 68 71 57 31 66 32 35 92 93 62 38 -16 41 40 50 70 109 93 121 158 160 122 114 114 124 132 154 153 137 120 117 113 111 98 105 107 104 91 97 71 74 69 62 54 49
26 37 36 46 52 39 42 39 31 29 28 98 84 82 36 8 41 46 30 20 19 54 74 114 140 154 142 97 115 113 135 159 164 149 135 141 144 127 119 120 114 112 104 87 70 73 58 59 55
43 60 46 32 33 31 37 22 29 30 139 94 96 114 109 102 91 58 44 22 9 6 40 79 119 155 168 153 135 125 140 132 126 148 143 149 146 135 130 123 115 108 105 96 80 68 67 58 56
127 61 41 39 42 56 58 87 59 107 97 103 103 95 85 72 78 69 26 15 10 13 32 77 106 154 172 162 153 161 141 139 121 111 125 130 143 150 130 115 108 102 101 87 76 68 62 56 53
77 77 67 53 90 104 62 41 73 114 106 89 82 66 63 72 85 73 56 37 17 19 34 62 108 142 175 176 185 178 143 126 124 107 118 120 120 133 130 120 108 97 88 76 73 66 58 53 46
66 83 66 125 123 80 89 81 159 113 82 68 75 65 80 80 75 73 100 96 63 32 22 42 80 91 130 179 216 209 180 179 135 121 119 126 123 131 149 133 118 106 98 84 69 62 52 46 41
94 111 207 172 88 114 99 105 80 73 85 82 56 77 75 78 127 106 87 112 114 87 50 35 40 76 100 128 147 167 195 191 161 133 143 153 158 147 164 135 120 114 99 91 80 71 62 55 48
271 243 175 145 137 114 119 101 131 68 73 57 71 71 89 141 84 67 89 115 124 122 113 64 56 56 117 124 125 122 125 137 174 179 194 218 178 173 186 164 162 126 104 95 103 93 70 63 65
122 122 126 109 137 120 103 75 94 89 77 79 78 75 190 116 70 62 89 117 171 180 152 132 101 52 91 108 118 140 219 242 170 152 171 178 230 226 243 248 176 208 139 105 97 92 83 90 93
81 100 79 98 75 109 62 57 47 31 54 36 138 248 159 135 139 137 91 96 121 121 142 166 134 82 33 75 119 164 181 141 160 126 120 143 215 279 319 270 280 276 263 219 139 101 178 165 130
71 93 98 99 75 49 42 53 24 49 41 135 220 176 138 143 159 173 182 129 98 109 130 133 122 80 5 -10 78 131 165 151 122 160 160 139 185 212 274 266 327 332 299 304 325 182 207 199 111
66 124 99 76 71 71 93 56 38 48 216 268 203 177 168 136 100 65 63 81 89 78 68 78 87 60 -1 2 8 112 174 121 121 106 64 80 105 216 232 235 305 310 281 300 270 233 153 171 132
81 92 65 55 61 71 63 125 70 139 256 184 171 129 130 120 97 110 108 93 65 52 28 44 105 105 61 35 43 89 116 133 82 90 84 79 170 108 38 125 191 217 245 154 218 208 107 97 163
89 58 57 54 65 97 160 106 90 184 255 228 166 163 147 143 164 111 95 116 106 100 81 52 69 100 76 57 83 40 83 104 72 77 143 141 114 28 22 80 123 137 211 168 115 89 125 134 133
106 97 109 115 143 105 118 119 113 240 275 205 192 213 197 132 89 65 42 22 45 65 111 113 95 115 107 140 98 72 28 34 57 73 106 82 94 201 203 232 332 372 226 180 188 239 297 247 211
75 82 138 183 167 117 92 185 171 378 307 262 211 221 198 155 115 89 61 65 44 33 58 65 128 92 82 111 158 157 130 74 159 252 348 384 409 441 531 583 671 772 602 469 487 355 318 260 246
149 66 200 110 78 102 116 89 205 262 269 263 269 236 227 210 117 118 101 66 78 51 40 49 58 131 86 67 109 196 240 271 277 377 424 435 442 472 505 495 446 407 362 188 170 209 177 170 160
66 136 112 117 185 166 154 121 113 229 322 325 286 267 190 126 95 63 21 -5 6 68 18 5 -10 31 72 75 76 91 136 174 246 352 489 538 516 531 536 504 468 381 311 352 157 103 163 170 165
126 119 132 150 171 180 205 206 187 304 264 270 265 195 134 107 64 10 29 30 27 12 11 9 17 -3 40 126 98 110 140 162 174 204 247 322 402 385 314 324 344 419 444 307 237 190 152 151 142
81 79 87 159 155 282 300 263 215 171 164 180 110 85 95 77 45 4 20 7 -0 -1 39 69 15 16 26 60 120 76 62 104 154 211 212 255 272 273 288 282 315 332 300 237 189 162 134 118 135
Wind_Speed
28 27 30 33 31 31 40 37 28 31 33 31 35 28 25 18 19 20 21 31 37 39 37 52 53 50 47 47 50 50 50 50 50 53 54 54 52 49 46 41 32 31 32 33 33 34 35 36 36
26 28 34 31 30 38 40 31 34 30 30 31 27 24 22 26 18 17 26 34 39 38 34 44 52 47 44 41 40 44 46 44 47 48 50 49 46 44 42 40 37 35 33 33 33 32 32 30 30
26 30 31 30 32 36 35 28 24 24 21 23 27 24 20 29 25 19 33 38 44 41 37 35 44 44 41 42 40 39 41 43 42 43 43 42 41 39 38 37 35 33 31 30 29 29 28 27 27
27 32 31 28 38 38 33 23 22 21 26 24 22 19 27 28 26 27 35 39 43 42 38 30 34 30 34 35 37 37 35 39 40 40 38 37 38 37 36 34 33 31 29 28 27 26 25 25 24
28 29 28 32 35 36 39 36 37 25 20 20 18 14 21 28 29 33 36 37 41 40 38 31 35 29 30 33 33 34 33 31 34 34 33 33 33 33 32 32 30 28 27 26 24 23 23 22 21
26 27 25 27 30 32 37 37 31 39 33 17 14 12 18 29 27 29 31 31 34 36 35 32 38 31 24 26 29 31 31 27 23 24 24 27 27 29 32 30 28 26 25 24 22 21 20 18 16
26 22 24 24 24 24 37 48 37 43 29 40 26 13 30 24 24 25 24 25 27 29 32 29 34 35 26 25 27 27 28 25 20 16 14 15 13 19 22 22 21 20 20 18 16 15 14 12 11
33 27 19 22 23 24 37 47 42 45 35 37 33 28 32 35 22 18 17 18 19 22 25 29 29 31 33 23 25 26 25 24 21 19 16 12 6 7 7 11 15 15 14 12 11 10 8 7 6
29 18 14 19 24 32 40 45 43 44 30 47 36 29 42 33 22 13 9 10 12 17 21 25 27 30 31 32 23 24 23 21 19 17 15 12 13 12 10 7 6 6 4 5 3 1 1 3 5
29 26 27 29 36 35 38 44 53 47 48 38 52 46 26 33 22 9 2 9 14 17 22 22 25 27 29 25 24 23 26 25 22 20 18 17 16 19 18 19 15 18 13 11 9 8 11 14 15
32 32 33 33 35 44 50 43 41 42 45 55 55 63 69 27 31 14 10 14 16 18 17 21 19 22 25 24 17 18 25 33 31 28 25 25 24 26 28 30 26 22 18 20 16 17 17 17 19
38 34 36 40 38 51 55 60 48 41 46 50 50 64 64 47 36 27 19 15 18 16 19 15 16 17 20 18 18 18 21 26 33 35 35 35 34 33 33 31 30 27 24 23 23 21 21 21 21
39 40 38 45 52 52 55 47 48 47 45 50 58 62 64 62 57 46 44 36 24 20 20 18 16 18 18 22 18 20 21 23 26 32 33 37 37 38 36 35 33 32 28 27 26 26 26 25 25
48 53 55 54 58 45 46 48 48 39 53 65 66 66 65 63 57 55 53 53 27 22 22 24 24 22 20 22 24 22 22 24 25 25 27 29 32 35 35 36 35 34 32 30 29 27 28 26 26
49 62 64 55 42 49 51 50 42 46 67 73 73 72 69 65 61 57 60 62 55 38 28 24 27 29 28 28 28 28 27 27 28 28 28 27 27 27 27 30 32 33 33 33 33 32 31 34 31
58 58 57 39 57 47 63 66 53 72 75 75 78 74 69 66 63 60 57 59 57 53 43 33 28 30 32 34 33 32 32 32 31 30 30 30 30 29 28 28 29 30 32 32 33 34 36 36 35
48 65 68 65 56 70 65 79 71 67 76 80 73 73 72 66 63 63 62 60 59 58 54 42 34 29 30 34 37 37 37 38 37 35 34 33 33 32 32 33 34 32 33 35 38 41 42 44 40
76 76 74 78 72 81 79 79 81 78 80 79 73 81 70 66 65 63 62 63 61 60 59 59 50 40 35 37 39 39 40 43 42 43 42 40 37 38 37 36 36 37 39 40 39 45 51 50 52
62 67 75 73 73 75 79 89 92 92 84 76 84 78 67 72 68 65 65 66 68 66 65 66 70 70 54 47 46 45 46 46 49 49 49 49 46 44 44 43 47 49 47 43 45 51 56 60 50
58 70 73 72 70 77 87 92 88 80 74 77 64 65 71 73 72 70 69 69 71 72 72 74 75 77 77 61 60 60 59 57 53 52 52 51 53 51 51 50 49 45 42 43 47 57 51 59 62
62 64 71 78 81 75 82 86 75 64 59 51 56 63 65 69 72 73 74 74 74 75 77 81 83 84 82 83 74 71 70 67 53 48 51 52 53 53 54 55 52 48 44 43 35 35 39 40 51
66 64 67 72 79 83 72 101 75 64 50 52 60 64 68 71 72 74 78 80 80 81 81 83 88 91 87 81 77 73 69 69 58 60 55 52 51 50 51 57 55 53 49 41 36 30 34 35 42
63 62 65 68 73 78 69 64 70 52 51 60 64 67 69 71 73 77 81 82 82 83 84 84 88 90 89 86 83 72 76 67 68 61 58 52 45 44 48 50 51 51 47 44 37 29 27 29 44
57 60 66 62 58 69 55 57 64 52 52 54 59 64 69 73 76 76 78 80 83 86 86 86 89 89 89 86 83 80 77 68 70 65 59 50 47 48 48 44 44 47 50 49 42 36 36 33 41
61 68 79 67 57 70 50 71 62 47 45 52 59 65 70 72 73 77 82 85 88 90 91 88 88 88 84 81 75 71 70 68 69 64 56 52 49 46 45 43 41 43 51 56 56 44 43 46 27
62 55 61 73 74 83 73 68 63 39 39 48 55 62 68 73 76 80 85 87 90 91 92 88 86 82 75 69 63 56 57 61 57 52 42 36 35 36 32 27 28 29 36 48 54 32 42 22 26
53 57 53 68 71 78 69 63 48 41 43 51 58 65 73 77 81 86 89 89 90 91 93 86 84 78 71 64 58 51 43 39 37 37 34 32 29 29 27 25 25 19 24 40 50 26 27 33 29
44 58 63 50 77 81 74 83 86 44 47 56 64 74 81 85 89 90 90 91 90 91 89 84 78 72 70 62 53 46 39 34 31 27 28 28 26 27 25 22 22 20 26 27 25 32 27 26 29
64 62 56 63 66 85 94 81 54 55 52 64 73 81 91 94 94 91 92 92 91 88 85 82 75 69 66 58 48 42 37 34 28 26 26 24 22 24 25 24 24 23 21 20 17 20 25 27 30
55 57 55 71 82 73 80 86 66 58 61 74 82 86 96 91 90 89 90 90 88 86 83 81 74 66 59 53 45 40 34 34 32 26 27 29 26 22 24 22 21 21 24 21 22 24 24 32 34
Wind_Direction
170 175 156 148 138 136 103 101 123 115 106 108 99 111 104 112 108 100 116 120 115 118 117 137 136 128 124 124 132 132 131 129 128 131 135 134 130 128 122 108 82 77 76 75 74 72 74 73 71
187 162 150 146 135 115 93 113 98 111 107 91 109 111 106 88 127 128 97 114 120 119 117 133 142 130 124 122 123 130 132 129 131 131 134 131 128 125 122 116 108 101 92 89 85 81 76 70 65
169 161 158 142 121 99 96 111 119 117 123 111 98 100 107 78 102 122 83 107 127 127 126 129 138 136 129 129 128 128 132 134 132 132 132 130 127 125 123 121 115 106 99 93 89 85 79 76 75
164 151 148 130 92 82 89 114 123 121 99 108 103 99 79 77 94 95 87 106 125 133 134 128 138 136 135 132 133 133 133 135 137 136 133 132 133 131 129 126 121 115 109 104 99 92 87 87 84
150 131 109 99 71 65 23 9 52 87 113 107 113 112 80 65 75 69 82 105 126 133 139 137 147 147 145 143 140 139 138 138 140 138 137 137 137 137 135 134 128 122 118 114 106 100 99 100 95
123 120 100 85 71 48 22 295 263 7 33 96 116 142 78 48 67 76 86 98 123 133 142 145 155 156 157 154 151 149 149 145 142 140 138 140 140 144 147 142 139 133 128 124 120 116 111 105 97
9 32 62 68 62 63 19 326 15 356 37 14 41 96 26 51 59 73 89 92 116 130 143 149 161 163 167 169 166 165 162 160 158 154 149 145 141 144 145 145 144 140 137 132 124 121 114 102 90
339 3 57 39 37 32 1 339 353 351 10 9 19 30 24 13 50 60 81 98 111 130 144 153 162 171 174 184 184 180 178 177 175 174 174 177 196 174 163 154 154 151 148 141 134 128 121 114 91
360 26 32 22 7 356 346 342 348 343 360 341 359 9 338 2 27 50 73 121 126 144 154 159 164 171 180 183 201 203 200 200 200 202 208 225 265 270 269 252 275 195 185 171 168 154 6 353 342
5 358 358 350 341 342 343 339 331 336 333 343 327 333 352 346 354 10 128 180 179 174 172 170 174 174 177 186 195 224 246 247 244 237 235 229 251 274 277 284 275 293 290 294 295 298 309 317 322
353 346 348 343 340 332 328 333 336 333 327 328 325 319 304 247 325 311 259 228 215 201 192 186 186 185 184 186 208 237 247 260 259 251 251 260 265 274 279 284 287 283 283 294 291 298 300 305 312
339 340 337 336 338 328 323 320 324 324 322 328 331 324 323 322 319 315 303 273 241 234 217 215 205 203 201 202 209 222 243 252 261 262 259 265 269 274 277 278 283 285 286 288 292 299 299 303 306
330 332 334 329 325 325 324 325 324 322 331 331 325 326 326 323 313 314 313 313 298 245 263 250 235 222 225 215 228 228 236 242 253 261 260 261 266 271 275 277 280 283 285 289 291 295 301 303 305
326 321 320 321 320 327 328 328 325 332 328 321 324 323 325 324 322 315 311 308 306 280 258 264 246 235 239 235 234 252 251 249 250 247 246 245 257 267 271 275 277 280 284 287 290 293 298 301 305
322 317 316 318 326 325 328 320 323 326 321 316 317 319 319 321 320 317 308 301 304 301 287 256 259 253 242 242 248 248 255 257 250 250 250 236 232 241 255 268 274 278 282 285 289 292 295 299 303
317 315 316 324 321 324 322 313 321 313 316 315 314 316 319 319 319 321 316 309 305 302 301 293 278 264 245 238 252 254 251 252 250 250 251 238 236 235 244 256 266 274 279 283 286 289 293 296 299
312 311 312 314 317 313 314 309 314 318 313 312 314 315 315 317 320 320 318 314 309 304 302 301 293 275 259 249 249 247 252 249 243 246 243 237 235 238 248 260 267 270 275 279 284 288 291 294 298
311 309 311 311 315 310 309 307 309 312 314 309 312 312 312 316 318 322 322 317 313 310 306 300 299 294 284 278 270 255 250 244 247 241 244 245 245 247 251 256 262 267 273 277 280 284 287 290 292
314 312 311 314 316 314 312 308 306 308 310 310 310 311 313 312 316 318 320 316 312 311 308 304 296 293 292 285 281 270 251 252 257 252 254 254 253 253 253 259 265 267 271 275 282 284 283 283 287
318 315 313 316 318 317 313 310 311 313 313 312 318 318 317 317 316 316 317 316 314 309 307 304 301 296 291 288 283 280 277 270 264 261 257 252 256 254 254 258 260 256 256 263 271 277 283 279 277
316 316 317 315 316 315 314 313 319 324 327 333 334 330 327 324 320 319 318 317 315 312 309 304 302 301 297 290 283 281 283 274 267 257 258 256 253 255 256 260 260 257 255 256 267 263 258 268 275
317 321 319 318 318 315 323 310 319 325 333 338 336 335 334 331 330 326 321 317 316 314 312 307 303 301 300 297 287 279 280 275 272 277 274 268 261 257 260 263 257 256 256 251 264 256 248 262 276
320 324 321 320 316 317 319 314 320 329 327 329 332 333 334 334 334 331 328 325 321 317 314 311 308 304 301 296 288 279 275 276 278 280 277 272 268 262 266 265 256 253 248 253 260 257 241 251 272
331 326 322 319 319 315 325 325 326 327 329 334 337 337 337 334 334 335 334 331 327 325 321 316 311 308 305 299 290 277 273 274 275 278 278 275 272 273 270 267 262 257 258 262 263 263 268 255 253
333 327 320 319 317 315 327 318 317 328 333 336 336 337 338 339 337 335 334 335 333 329 324 320 317 311 309 303 297 284 276 273 275 277 277 275 276 277 278 277 276 276 274 271 266 258 272 269 281
329 332 324 318 318 314 318 315 323 334 335 336 337 337 336 336 336 334 333 334 334 331 327 323 321 315 313 310 310 303 288 280 281 285 284 282 281 286 285 281 285 289 290 298 258 280 264 288 283
332 323 330 316 311 310 312 312 319 319 324 330 332 332 331 330 329 328 329 330 330 332 331 327 322 318 315 311 312 313 305 298 297 294 294 294 292 292 294 290 293 295 311 311 304 291 284 279 289
324 327 322 316 315 311 311 312 312 310 318 325 328 328 326 323 322 323 325 325 326 328 327 329 322 318 317 316 312 318 320 312 311 306 304 301 304 303 304 306 311 307 314 302 315 313 316 307 300
320 314 312 313 305 303 306 307 322 319 320 322 323 322 321 319 319 321 322 323 322 322 323 324 326 322 320 321 324 313 322 321 326 326 321 321 319 324 321 315 311 324 333 337 321 322 316 308 306
324 318 315 309 309 307 304 297 316 311 313 316 316 318 319 318 318 319 320 322 322 321 319 316 315 318 326 326 326 341 319 321 320 323 329 329 329 342 334 341 344 346 339 336 330 318 327 304 308